Adelanto, California, United States (92301)
Lat: 34.58N, Lon: 117.41W
Wx Zone: CAZ060
Local Info
Past Weather Observations for Thursday, April 10, 2014

NOTE: This archive is for the closest National Weather Service station to Adelanto. Information may differ from the station used for current weather conditions.

Time Weather Temperature Dewpoint Humidity Pressure Winds Precip Visibility
23:55
Clear
61°F / 16°C 19°F / -7°C 20% 30.01 in
(1016 mb)
SW 3.5 mph
(SW 6 kph)
- 10SM
23:35
Clear
63°F / 17°C 18°F / -8°C 17% 30.01 in
(1016 mb)
S 3.5 mph
(S 6 kph)
- 10SM
23:15
Clear
64°F / 18°C 19°F / -7°C 18% 30.01 in
(1016 mb)
S 3.5 mph
(S 6 kph)
- 10SM
22:55
Clear
64°F / 18°C 21°F / -6°C 19% 30.01 in
(1016 mb)
Calm - 10SM
22:35
Clear
64°F / 18°C 21°F / -6°C 19% 30.01 in
(1016 mb)
S 3.5 mph
(S 6 kph)
- 10SM
22:15
Clear
64°F / 18°C 25°F / -4°C 22% 30.01 in
(1016 mb)
SW 4.6 mph
(SW 7 kph)
- 10SM
21:55
Clear
63°F / 17°C 27°F / -3°C 25% 30.01 in
(1016 mb)
SW 5.8 mph
(SW 9 kph)
- 10SM
21:35
Clear
64°F / 18°C 23°F / -5°C 21% 30.01 in
(1016 mb)
Calm - 10SM
21:15
Clear
66°F / 19°C 21°F / -6°C 18% 30.01 in
(1016 mb)
SW 3.5 mph
(SW 6 kph)
- 10SM
20:55
Clear
66°F / 19°C 23°F / -5°C 19% 30.01 in
(1016 mb)
SSE 6.9 mph
(SSE 11 kph)
- 10SM
20:35
Clear
70°F / 21°C 19°F / -7°C 15% 30.01 in
(1016 mb)
SW 6.9 mph
(SW 11 kph)
- 10SM
20:15
Clear
72°F / 22°C 19°F / -7°C 14% 30.01 in
(1016 mb)
S 10.4 mph
(S 17 kph)
- 10SM
19:55
Clear
72°F / 22°C 12°F / -11°C 10% 29.98 in
(1015 mb)
Calm - 10SM
19:35
Clear
73°F / 23°C 12°F / -11°C 9% 29.98 in
(1015 mb)
SW 3.5 mph
(SW 6 kph)
- 10SM
19:15
Clear
73°F / 23°C 10°F / -12°C 9% 29.98 in
(1015 mb)
SSW 3.5 mph
(SSW 6 kph)
- 10SM
18:55
Clear
75°F / 24°C 12°F / -11°C 9% 29.98 in
(1015 mb)
SW 8.1 mph
(SW 13 kph)
- 10SM
18:35
Clear
75°F / 24°C 10°F / -12°C 8% 29.95 in
(1014 mb)
S 13.8 mph
(S 22 kph)
- 10SM
18:15
Clear
75°F / 24°C 10°F / -12°C 8% 29.95 in
(1014 mb)
S 13.8 mph
(S 22 kph)
- 10SM
17:55
Partly Cloudy
77°F / 25°C 10°F / -12°C 8% 29.95 in
(1014 mb)
S 16.1 mph
(S 26 kph)
- 10SM
17:35
Partly Cloudy
79°F / 26°C 10°F / -12°C 7% 29.95 in
(1014 mb)
S 10.4 mph
(S 17 kph)
- 10SM
17:15
Partly Cloudy
79°F / 26°C 10°F / -12°C 7% 29.95 in
(1014 mb)
S 16.1 mph
(S 26 kph)
- 10SM
16:55
Partly Cloudy
81°F / 27°C 9°F / -13°C 6% 29.95 in
(1014 mb)
S 15 mph
(S 24 kph)
- 10SM
16:35
Partly Cloudy
81°F / 27°C 10°F / -12°C 7% 29.95 in
(1014 mb)
S 19.6 mph
(S 32 kph)
- 10SM
16:15
Partly Cloudy
82°F / 28°C 14°F / -10°C 7% 29.95 in
(1014 mb)
S 19.6 mph
(S 32 kph)
- 10SM
15:55
Partly Cloudy
82°F / 28°C 16°F / -9°C 8% 29.95 in
(1014 mb)
S 19.6 mph
(S 32 kph)
- 10SM
15:35
Partly Cloudy
84°F / 29°C 16°F / -9°C 8% 29.95 in
(1014 mb)
S 17.3 mph
(S 28 kph)
- 10SM
15:15
Partly Cloudy
84°F / 29°C 14°F / -10°C 7% 29.95 in
(1014 mb)
S 8.1 mph
(S 13 kph)
- 10SM
14:55
Partly Cloudy
86°F / 30°C 9°F / -13°C 5% 29.98 in
(1015 mb)
ESE 6.9 mph
(ESE 11 kph)
- 10SM
14:35
Partly Cloudy
86°F / 30°C 9°F / -13°C 5% 29.98 in
(1015 mb)
E 5.8 mph
(E 9 kph)
- 10SM
14:15
Partly Cloudy
84°F / 29°C 9°F / -13°C 5% 29.98 in
(1015 mb)
SE 6.9 mph
(SE 11 kph)
- 10SM
13:55
Partly Cloudy
84°F / 29°C 9°F / -13°C 5% 29.98 in
(1015 mb)
Calm - 10SM
13:35
Partly Cloudy
86°F / 30°C 9°F / -13°C 5% 30.01 in
(1016 mb)
S 6.9 mph
(S 11 kph)
- 10SM
13:15
Partly Cloudy
86°F / 30°C 9°F / -13°C 5% 30.01 in
(1016 mb)
Calm - 10SM
12:55
Partly Cloudy
84°F / 29°C 9°F / -13°C 5% 30.01 in
(1016 mb)
S 3.5 mph
(S 6 kph)
- 10SM
12:35
Partly Cloudy
84°F / 29°C 9°F / -13°C 5% 30.04 in
(1017 mb)
W 6.9 mph
(W 11 kph)
- 10SM
12:15
Partly Cloudy
84°F / 29°C 9°F / -13°C 5% 30.04 in
(1017 mb)
W 9.2 mph
(W 15 kph)
- 10SM
11:55
Partly Cloudy
82°F / 28°C 9°F / -13°C 6% 30.04 in
(1017 mb)
W 4.6 mph
(W 7 kph)
- 10SM
11:35
Partly Cloudy
82°F / 28°C 7°F / -14°C 5% 30.04 in
(1017 mb)
W 4.6 mph
(W 7 kph)
- 10SM
11:15
Partly Cloudy
82°F / 28°C 7°F / -14°C 5% 30.06 in
(1018 mb)
W 4.6 mph
(W 7 kph)
- 10SM
10:55
Partly Cloudy
81°F / 27°C 3°F / -16°C 5% 30.06 in
(1018 mb)
SSW 4.6 mph
(SSW 7 kph)
- 10SM
10:35
Partly Cloudy
81°F / 27°C 3°F / -16°C 5% 30.06 in
(1018 mb)
SSW 8.1 mph
(SSW 13 kph)
- 10SM
10:15
Partly Cloudy
79°F / 26°C 3°F / -16°C 5% 30.06 in
(1018 mb)
Calm - 10SM
09:55
Clear
79°F / 26°C 5°F / -15°C 6% 30.06 in
(1018 mb)
N 4.6 mph
(N 7 kph)
- 10SM
09:35
Clear
77°F / 25°C 1°F / -17°C 5% 30.06 in
(1018 mb)
Calm - 10SM
09:15
Clear
75°F / 24°C 7°F / -14°C 7% 30.06 in
(1018 mb)
Calm - 10SM
08:55
Clear
73°F / 23°C 7°F / -14°C 7% 30.06 in
(1018 mb)
W 4.6 mph
(W 7 kph)
- 10SM
08:35
Clear
72°F / 22°C 7°F / -14°C 8% 30.06 in
(1018 mb)
Calm - 10SM
08:15
Clear
70°F / 21°C 3°F / -16°C 7% 30.06 in
(1018 mb)
Calm - 10SM
07:55
Clear
66°F / 19°C 5°F / -15°C 9% 30.06 in
(1018 mb)
Calm - 10SM
07:35
Clear
64°F / 18°C 7°F / -14°C 10% 30.04 in
(1017 mb)
Calm - 10SM
07:15
Clear
61°F / 16°C 10°F / -12°C 13% 30.04 in
(1017 mb)
SSE 4.6 mph
(SSE 7 kph)
- 10SM
06:55
Fair
55°F / 13°C 9°F / -13°C 15% 30.04 in
(1017 mb)
S 3.5 mph
(S 6 kph)
- 10SM
06:35
Fair
52°F / 11°C 5°F / -15°C 15% 30.04 in
(1017 mb)
Calm - 10SM
06:15
Fair
48°F / 9°C 3°F / -16°C 15% 30.04 in
(1017 mb)
SW 3.5 mph
(SW 6 kph)
- 10SM
05:55
Fair
52°F / 11°C 3°F / -16°C 13% 30.04 in
(1017 mb)
Calm - 10SM
05:35
Fair
50°F / 10°C 1°F / -17°C 13% 30.04 in
(1017 mb)
SSW 3.5 mph
(SSW 6 kph)
- 10SM
05:15
Fair
46°F / 8°C 1°F / -17°C 15% 30.04 in
(1017 mb)
W 4.6 mph
(W 7 kph)
- 10SM
04:55
Fair
52°F / 11°C 1°F / -17°C 12% 30.04 in
(1017 mb)
SW 3.5 mph
(SW 6 kph)
- 10SM
04:35
Fair
52°F / 11°C 3°F / -16°C 13% 30.01 in
(1016 mb)
S 5.8 mph
(S 9 kph)
- 10SM
04:15
Fair
50°F / 10°C 1°F / -17°C 13% 30.01 in
(1016 mb)
S 8.1 mph
(S 13 kph)
- 10SM
03:55
Fair
52°F / 11°C 3°F / -16°C 13% 30.01 in
(1016 mb)
S 9.2 mph
(S 15 kph)
- 10SM
03:35
Fair
52°F / 11°C 3°F / -16°C 13% 30.01 in
(1016 mb)
S 9.2 mph
(S 15 kph)
- 10SM
03:15
Fair
54°F / 12°C 3°F / -16°C 13% 30.04 in
(1017 mb)
SW 9.2 mph
(SW 15 kph)
- 10SM
02:55
Clear
52°F / 11°C 3°F / -16°C 13% 30.04 in
(1017 mb)
SW 8.1 mph
(SW 13 kph)
- 10SM
02:35
Clear
54°F / 12°C 3°F / -16°C 13% 30.04 in
(1017 mb)
SW 8.1 mph
(SW 13 kph)
- 10SM
02:15
Clear
54°F / 12°C 3°F / -16°C 13% 30.04 in
(1017 mb)
SW 6.9 mph
(SW 11 kph)
- 10SM
01:55
Clear
54°F / 12°C 3°F / -16°C 13% 30.04 in
(1017 mb)
SSW 3.5 mph
(SSW 6 kph)
- 10SM
01:35
Clear
54°F / 12°C 3°F / -16°C 13% 30.04 in
(1017 mb)
Calm - 10SM
01:15
Clear
61°F / 16°C 5°F / -15°C 11% 30.06 in
(1018 mb)
Calm - 10SM
00:55
Clear
54°F / 12°C 5°F / -15°C 14% 30.06 in
(1018 mb)
Calm - 10SM
00:35
Clear
54°F / 12°C 7°F / -14°C 15% 30.06 in
(1018 mb)
SW 5.8 mph
(SW 9 kph)
- 10SM
00:15
Clear
57°F / 14°C 9°F / -13°C 14% 30.06 in
(1018 mb)
Calm - 10SM
Time Weather Temperature Dewpoint Humidity Pressure Winds Precip Visibility


Weather for websites

WeatherForYou.com, LLC is not responsible for any damages or problems caused by this service. Current weather conditions are obtained from the closest station including government and personal stations which may have varying degrees of accuracy. Weather forecasts are derived from the NOAA NDFD. Like all things, this site belongs to Jesus Christ... He just trusts me to maintain it. If you have any questions or comments email webmaster@weatherforyou.com

Copyright © 2014, WeatherForYou.com LLC. All rights reserved.